Showing default

CONNECTA IOT-2, 60522

Orbit data source: Space-Track

CONNECTA IOT-2, 60522 is a payload satellite owned by Plan-S (TR) in SSO that was launched on Fri, 16 Aug 2024 UTC via an FALCON 9 launch vehicle from the Air Force Western Test Range (AFWTR). Payload-class satellites include a variety of spacecraft equipped with specific instruments for various scientific and technological missions. These include communications satellites like Starlink; space stations such as the ISS; scientific satellites like the Hubble; Earth observation satellites from companies like Planet Labs, Umbra, and HawkEye 360; GPS; miniature CubeSats for education and research; and military/defense satellites.

Loading next visibility...
Identifier
60522, 2024-149BG
Orbit
SSO
Country
Flag of TRTR / TURK
Related business
Manufacturer
Plan-S
Mission
Operational Commercial Communications
Bus & Motor
CUBESAT 6U, Unknown motor
Mass
10 kg wet, 10 kg dry
Launch date (UTC)
2024-08-16 (2 years ago)
Launch vehicle
FALCON 9
Launch site
Air Force Western Test Range (AFWTR)
Object type
Payload
Rocket body
Debris
Shape & HBR
Box, 2.2 m
Radar Cross Section
0.080 m², Medium (>0.1 m² and < 1m²)

Expand to show TLE details & history
Last TLE update: 7 hours ago

TLE from 7 hours ago
0 CONNECTA IOT-2
1 60522U 24149BG  26126.15243178  .00004946  00000-0  20933-3 0  9996
2 60522  97.3838 204.9462 0008126 109.7516 250.4598 15.23618179 95491
Epoch: 2026-05-06T03:39Z
TLE epoch observation values (Epoch: 2026-05-06T03:39:30.105Z)
Latitude
-0.00006°
Longitude
-73.94625°
Altitude
499.906 km
Speed
7.613 km/s
True Right ascension
13h 39m 47s
True Declination
0° 00' 00"
Sunlit
Object was in full shadow at epoch
Visualization orbit readout
Latitude
Unknown
Longitude
Unknown
Altitude
Unknown
Speed
Unknown
Apparent Right ascension
Unknown
Apparent Declination
Unknown
Sunlit
N/A
Visualization observer readout
Local Sidereal Time
18:23:40
Azimuth
Unknown
Elevation
Unknown
Doppler factor
Unknown
Orbital elements
Apogee altitude
497.481 km
Perigee altitude
486.315 km
Semi-major axis
6,870.035 km
Eccentricity
0.00081
Inclination
97.3838°
RAAN
204.9462°
Arg. of periapsis
109.7516°
True anomaly
250.37208°
Mean anomaly
250.4598°
Eccentric anomaly
250.41593°
Mean motion
3.81158 °/min
Orbital period
94.45 mins
BSTAR
0.00020933
Loading maneuver chart data...
Computing Atmospheric mass density...
Loading historical data...
Loading historical data...
Loading historical data...
Loading historical data...
Loading historical data...
Loading historical data...
Loading historical data...

Documentation

Showing up to 5 results
|